Regional Weather Roundup
Issued by NWS Burlington, VT

Home | Current Version | Previous Version | Text Only | Print | Product List | Glossary On
Versions: 1 2 3 4 5 6 7 8 9 10 11 12 13 14 15 16 17 18 19 20 21 22 23 24 25 26 27 28 29 30 31 32 33 34 35 36 37 38 39 40 41 42 43 44 45 46 47 48 49 50
000
ASUS41 KBTV 281230
RWRBTV
VERMONT REGIONAL WEATHER ROUNDUP
NATIONAL WEATHER SERVICE BURLINGTON VT
700 AM EST SUN DEC 28 2014

NOTE: "FAIR" INDICATES FEW OR NO CLOUDS BELOW 12,000 FEET WITH NO
SIGNIFICANT WEATHER AND/OR OBSTRUCTIONS TO VISIBILITY.

* THESE REPORTS ARE NOT UNDER NWS QUALITY CONTROL AND/OR DO NOT
  REPORT WEATHER SUCH AS PRECIPITATION AND FOG.

VTZ001>019-281300-
_____VERMONT_____


CITY           SKY/WX    TMP DP  RH WIND       PRES   REMARKS
BURLINGTON     CLOUDY    45  39  79 S14       29.73S
6HR MIN TEMP:  45; 6HR MAX TEMP:  48; 6HR PCP: TRACE;

MONTPELIER     LGT RAIN  43  38  82 VRB7G17   29.75F
6HR MIN TEMP:  39; 6HR MAX TEMP:  46; 6HR PCP:  0.05;

MORRISVILLE    LGT RAIN  42  38  85 CALM      29.72S
6HR MIN TEMP:  39; 6HR MAX TEMP:  48; 6HR PCP: TRACE;

ST. JOHNSBURY*   N/A     41  38  89 MISG      29.71S
6HR MIN TEMP:  40; 6HR MAX TEMP:  42; 6HR PCP:  0.04;

LYNDONVILLE*   RAIN      38  36  92 SE7       29.71F
6HR MIN TEMP:  37; 6HR MAX TEMP:  39;

MIDDLEBURY*    CLOUDY    43  43 100 S7        29.76S
6HR MIN TEMP:  44; 6HR MAX TEMP:  48; 6HR PCP:  0.02;

RUTLAND*       CLOUDY    45  39  81 SW7       29.77F
6HR MIN TEMP:  41; 6HR MAX TEMP:  45; 6HR PCP:  0.46;

SPRINGFIELD    LGT RAIN  37  37 100 CALM      29.77F FOG
6HR MIN TEMP:  32; 6HR MAX TEMP:  41; 6HR PCP:  0.04;

HIGHGATE*      DRIZZLE   42  39  90 SW8       29.72R
6HR MIN TEMP:  43; 6HR MAX TEMP:  47;

NEWPORT*       DRIZZLE   40  38  95 S3        29.68F
6HR MIN TEMP:  37; 6HR MAX TEMP:  39;

BENNINGTON     LGT RAIN  44  40  85 S6        29.80F
6HR MIN TEMP:  42; 6HR MAX TEMP:  50; 6HR PCP:  0.46;

SUTTON*          N/A     36 N/A N/A MISG        N/A
GALLUP MILLS*    N/A     36 N/A N/A MISG        N/A
UNION VILLAGE*   N/A     36 N/A N/A MISG        N/A
MT. MANSFIELD*   N/A     32 N/A N/A CALM        N/A

_____LAKE CHAMPLAIN_____


CITY           SKY/WX    TMP DP  RH WIND       PRES   REMARKS
BURTON ISLAND*   N/A     43  37  81 S20         N/A
COLCHESTER RF*   N/A     45  41  87 SW23        N/A

$$

NYZ007-026>031-035-052-083-281300-
_____NORTHERN NEW YORK_____


CITY           SKY/WX    TMP DP  RH WIND       PRES   REMARKS
PLATTSBURGH    LGT RAIN  47  39  74 W5        29.73R
6HR MIN TEMP:  43; 6HR MAX TEMP:  47; 6HR PCP: TRACE;

SARANAC LAKE   LGT SNOW  38  36  92 W8G18     29.72R FOG
6HR MIN TEMP:  39; 6HR MAX TEMP:  44; 6HR PCP:  0.09;

MASSENA        CLOUDY    43  38  82 W9        29.77R
6HR MIN TEMP:  43; 6HR MAX TEMP:  50; 6HR PCP:  0.04;

POTSDAM*       CLOUDY    41  39  93 W13G21    29.78R
STARK FALLS*     N/A     37 N/A N/A W10         N/A
WATERTOWN      CLOUDY    41  35  79 W14G22    29.85R
6HR MIN TEMP:  42; 6HR MAX TEMP:  52; 6HR PCP:  0.17;

FT DRUM        CLOUDY    39  37  90 W14G22    29.81R
6HR MIN TEMP:  39; 6HR MAX TEMP:  50; 6HR PCP:  0.20;

ALBANY         LGT RAIN  43  39  86 S12       29.82F
6HR MIN TEMP:  43; 6HR MAX TEMP:  48; 6HR PCP:  0.56;

GLENS FALLS    LGT RAIN  42  40  92 S8        29.79F
6HR MIN TEMP:  42; 6HR MAX TEMP:  44; 6HR PCP:  0.09;


$$
NHZ002-005-011-281300-
_____NEW HAMPSHIRE_____


CITY           SKY/WX    TMP DP  RH WIND       PRES   REMARKS
LEBANON        LGT RAIN  37  35  92 S6        29.75F FOG
6HR MIN TEMP:  37; 6HR MAX TEMP:  42; 6HR PCP:  0.13;

KEENE          CLOUDY    39  37  93 CALM      29.80F
6HR MIN TEMP:  37; 6HR MAX TEMP:  43; 6HR PCP:  0.05;

MT WASHINGTON  HVY SNOW  25  25 100 W70G77      N/A  VSB 1/16WCI   1
6HR MIN TEMP:  25; 6HR MAX TEMP:  30; 6HR PCP:  0.10;

PLYMOUTH       MIX PCPN  33  33 100 CALM      29.76S
6HR MIN TEMP:  33; 6HR MAX TEMP:  33; 6HR PCP:  0.12;

WHITEFIELD     LGT RAIN  43  39  86 SW6       29.72S
6HR MIN TEMP:  35; 6HR MAX TEMP:  43; 6HR PCP:  0.10;


$$

_____REGIONAL QUEBEC LOCATIONS_____


CITY           SKY/WX    TMP DP  RH WIND       PRES   REMARKS
MONTREAL       MOSUNNY   43  34  70 W20       29.69R
QUEBEC CITY    FRZ DRZL  30  30 100 N3        29.58  FOG
SHERBROOKE     LGT RAIN  41  39  93 SW6       29.65R FOG

_____REGIONAL ONTARIO LOCATIONS_____


CITY           SKY/WX    TMP DP  RH WIND       PRES   REMARKS
OTTAWA         PTSUNNY   39  28  65 W14G20    29.76R

______KEY______
VSB  - VISIBILITY IN MILES
WCI  - WIND CHILL INDEX
HX   - HEAT INDEX
$$
NNNN


USA.gov is the U.S. government's official web portal to all federal, state and local government web resources and services.